Location: Poprad
(0.0000°N, 20.3000°E)
Time: 14:02:51
(UTC+01:00)

Daily predictions for brighter satellites

Satellite Brightness Start Highest point End
(mag) Time Altitude Azimuth Time Altitude Azimuth Time Altitude Azimuth
ARIANE 5 DEB (SYLDA) 4.5 17:58:25 10° WNW 18:02:57 65° NNE 18:28:00 11° E
NOAA 12 4.1 17:59:30 10° SSE 18:04:46 64° ENE 18:10:01 10° N
Cosmos 1455 Rocket 3.5 18:02:34 10° SSE 18:06:45 39° E 18:10:53 10° NNE
Cosmos 2278 4.2 18:01:50 10° SSW 18:07:25 66° WNW 18:13:00 10° N
Cosmos 1934 Rocket 4.3 18:03:01 10° NNE 18:08:44 43° E 18:14:24 10° SSE
CZ-3B R/B 3.0 18:07:14 10° SSW 18:11:04 31° SE 18:20:29 10° E
SL-16 R/B 3.9 18:09:33 10° SE 18:11:41 12° ESE 18:13:51 10° E
Cosmos 1025 Rocket 3.0 18:07:55 10° N 18:12:16 75° E 18:16:40 10° S
YAOGAN 1 2.6 18:14:37 10° SSE 18:18:53 60° ENE 18:23:07 10° N
Hubble Space Telescope 3.4 18:17:18 10° WNW 18:19:35 14° NNW 18:21:54 10° N
Meteosat 1 Rocket2 3.1 18:18:45 10° SW 18:22:41 68° SSE 18:28:02 10° ENE
Meteor 1-15 Rocket 4.2 18:18:44 10° S 18:24:30 80° E 18:30:08 10° N
NOSS 3-2 (C) 4.0 18:25:28 10° S 18:30:15 28° ESE 18:35:00 10° NE
ARIANE 44L R/B 4.0 18:26:37 10° W 18:30:37 83° S 18:47:36 16° E
ARIANE 44L R/B 4.0 18:26:37 10° W 18:30:38 83° S 18:47:36 16° E
ARIANE 44L R/B 4.0 18:26:38 10° W 18:30:38 83° S 18:47:36 16° E
ARIANE 44L R/B 4.0 18:26:37 10° W 18:30:38 83° S 18:47:35 16° E
Ariane Rocket 3.1 18:27:11 10° SSE 18:32:09 55° ENE 18:37:06 10° N
Alouette 2 Rocket 4.1 18:30:49 10° SSE 18:34:16 33° E 18:38:40 10° NNE
Cosmos 1842 3.2 18:31:06 10° N 18:34:57 89° W 18:38:49 10° S
Cosmos 2297 Rocket 3.8 18:32:54 10° NE 18:34:57 13° ENE 18:34:57 13° ENE
Meteor 2-12 Rocket 4.4 18:32:08 10° N 18:38:03 59° E 18:43:59 10° SSE
Aurora 2 Rocket 3.8 18:36:22 10° SSW 18:38:24 16° SSE 18:39:08 15° SE
NOSS 3-2 (A) 3.1 18:34:28 10° SSW 18:40:02 67° ESE 18:45:35 10° NNE
Meteor 1-21 4.2 18:34:40 10° N 18:40:21 87° W 18:45:59 10° S
Cosmos 2219 3.5 18:36:46 10° N 18:41:59 41° ENE 18:47:15 10° SE
Cosmos 1980 Rocket 2.8 18:37:55 10° SSW 18:43:26 58° WNW 18:48:57 10° N
PSLV R/B 4.5 18:41:25 10° N 18:43:30 20° NE 18:43:30 20° NE
Cosmos 1340 3.4 18:40:19 10° SSW 18:44:02 56° W 18:47:44 10° N
IUS-17 SRM-1 3.4 18:45:08 10° NNW 18:47:01 20° NNE 18:47:01 20° NNE
Cosmos 1892 Rocket 4.0 18:44:30 10° NNE 18:48:30 36° E 18:52:32 10° SSE
Cosmos 1302 Rocket 3.9 18:45:56 10° N 18:51:08 68° ENE 18:56:22 10° SSE
Yuri Rocket 4.5 18:45:43 10° SW 18:51:47 35° SSE 18:53:53 26° ESE
Cosmos 1190 Rocket 4.5 18:49:38 10° SSW 18:54:49 63° WNW 19:00:01 10° N
GPS 2-05 Rocket1 3.9 18:52:46 10° NNW 18:54:39 24° NNE 18:54:39 24° NNE
ATLAS 3B CENTAUR R/B 2.4 18:55:07 10° WNW 18:56:40 15° NW 18:57:12 14° NNW
ATLAS 3B R/B 2.8 18:49:53 10° SSW 18:57:05 62° ESE 19:04:00 10° NNE
CZ-2D R/B 3.3 18:55:27 18° SSE 18:58:01 51° E 19:01:43 10° N
SWIFT 3.5 18:54:31 10° NW 18:58:04 26° NNE 18:58:42 25° NE
Cosmos 1000 Rocket 4.4 18:54:42 10° S 19:01:02 80° E 19:07:20 10° N
Tiangong 2 3.5 18:58:54 10° S 18:59:29 13° S 18:59:29 13° S
Ariane H10+ 2.3 19:02:02 10° NW 19:04:36 33° NNE 19:05:17 31° NE
CENTAUR R/B 3.1 19:00:46 10° S 19:04:15 27° SE 19:04:15 27° SE
Ariane H10+ 1.5 19:01:55 10° W 19:05:23 82° N 19:05:24 82° N
YAOGAN 6 2.9 19:03:39 10° S 19:07:20 69° W 19:11:00 10° NNW
Lacrosse 5 rocket 4.0 19:10:40 10° WNW 19:13:57 21° WSW 19:17:20 10° S
Cosmos 1766 3.2 19:13:12 10° S 19:17:06 81° W 19:18:11 46° N
TIMED 4.5 19:15:20 10° SSW 19:19:41 80° WNW 19:21:13 40° N
Palapa 6 Rocket 4.4 19:18:25 10° WNW 19:26:25 89° NNE 19:28:59 49° ESE
Meteor 1-22 Rocket 4.3 19:24:03 10° SSW 19:29:24 70° W 19:34:38 10° N
Cosmos 2322 Rocket 2.0 19:26:57 10° SSW 19:32:35 87° ESE 19:33:23 67° NNE
Cosmos 2227 Rocket 2.7 19:29:31 10° N 19:33:23 44° NNE 19:33:23 44° NNE
SPOT 3 Rocket 4.1 19:37:04 46° N 19:37:04 46° N 19:40:39 10° N
Maqsat-B 4.1 19:36:12 10° WNW 19:42:50 35° NNW 19:42:50 35° NNW
BLOCK-DM UPPERSTAGE 3.8 19:44:20 10° W 19:47:42 74° W 19:47:42 74° W
SL-16 R/B 3.2 19:50:10 10° SW 19:55:31 44° WNW 19:57:33 32° NNW
Gbstr 26 Del rocket 4.4 19:51:32 10° NW 19:55:45 46° WSW 19:55:45 46° WSW
Ariane H10 4.0 19:48:33 10° W 19:58:52 49° NW 19:58:52 49° NW
Cosmos 2297 Rocket 4.0 20:14:10 10° NW 20:16:53 26° NW 20:16:53 26° NW
CZ-3B R/B 4.2 21:01:00 10° W 21:42:26 - NE 21:08:24 55° NW
